CZ-6A DEB, 60967

Orbit data source: Space-Track

CZ-6A DEB, 60967 is space debris in LEO originally from a launch on Tue, 06 Aug 2024 UTC launched from the Taiyaun Space Center, China (TSC). Debris objects in space refer to the collection of defunct objects orbiting the Earth. Examples of debris include non-operational satellites, rocket bodies, and fragments generated from explosions, collisions, or faulty payload assembly.

Loading next visibility...
Identifier
60967, 2024-140LS
Orbit
LEO
Country
Flag of CNCN / PRC
Related business
Manufacturer
SAST
Mission
Spacecraft
Bus & Motor
Unknown
Mass
Unknown
Launch date (UTC)
2024-08-06 (2 years ago)
Launch vehicle
Unknown
Launch site
Taiyaun Space Center, China (TSC)
Object type
Payload
Rocket body
Debris
Shape & HBR
Unknown shape, 0.1 m
Radar Cross Section
Medium (>0.1 m² and <1 m²)

Expand to show TLE details & history
Last TLE update: 15 hours ago

TLE from 15 hours ago
0 CZ-6A DEB
1 60967U 24140LS  26171.23896411  .00000673  00000-0  34995-3 0  9999
2 60967  88.8210 261.6502 0119509 251.7698 107.0450 14.10083085 94248
Epoch: 2026-06-20T05:44Z
TLE epoch observation values (Epoch: 2026-06-20T05:44:06.499Z)
Latitude
0.00004°
Longitude
-92.83332°
Altitude
888.423 km
Speed
7.394 km/s
True Right ascension
17h 26m 36s
True Declination
0° 00' 00"
Sunlit
Object was in full shadow at epoch
Visualization orbit readout
Latitude
Unknown
Longitude
Unknown
Altitude
Unknown
Speed
Unknown
Apparent Right ascension
Unknown
Apparent Declination
Unknown
Sunlit
N/A
Visualization observer readout
Local Sidereal Time
07:19:31
Azimuth
Unknown
Elevation
Unknown
Doppler factor
Unknown
Orbital elements
Apogee altitude
942.508 km
Perigee altitude
769.598 km
Semi-major axis
7,234.19 km
Eccentricity
0.01195
Inclination
88.821°
RAAN
261.6502°
Arg. of periapsis
251.7698°
True anomaly
108.3485°
Mean anomaly
107.045°
Eccentric anomaly
107.69733°
Mean motion
3.52743 °/min
Orbital period
102.06 mins
BSTAR
0.00034995
Loading maneuver chart data...
Computing Atmospheric mass density...
Loading historical data...
Loading historical data...
Loading historical data...
Loading historical data...
Loading historical data...
Loading historical data...
Loading historical data...

Documentation

Showing up to 5 results
|